Regional Weather Roundup
Issued by NWS Northern Indiana

Home | Current Version | Previous Version | Graphics & Text | Print | Product List | Glossary On
Versions: 1 2 3 4 5 6 7 8 9 10 11 12 13 14 15 16 17 18 19 20 21 22 23 24 25 26 27 28 29 30 31 32 33 34 35 36 37 38 39 40 41 42 43 44 45 46 47 48 49 50
000
ASUS43 KIWX 120310
RWRIWX

KIWX WEATHER ROUNDUP
NATIONAL WEATHER SERVICE NORTHERN INDIANA
1000 PM EST THU FEB 11 2016

NOTE: "FAIR" INDICATES FEW OR NO CLOUDS BELOW 12,000 FEET WITH NO
SIGNIFICANT WEATHER AND/OR OBSTRUCTIONS TO VISIBILITY.

* THESE STATIONS ARE NOT UNDER NWS QUALITY CONTROL. THEY ALSO MAY NOT
  REPORT WEATHER SUCH AS PRECIPITATION OR FOG.

INZ001>027-120400-
NORTHERN INDIANA

CITY           SKY/WX    TMP DP  RH WIND       PRES   REMARKS
GARY*          CLEAR     14   7  73 SW5       30.29S WCI   6
VALPARAISO     PTCLDY    11   6  81 CALM      30.27F
MICHIGAN CITY* CLOUDY     9   3  78 CALM      30.28F
LAPORTE*       CLOUDY     5   2  90 CALM      30.28S
KNOX*          CLOUDY    12   9  85 CALM      30.28S
SOUTH BEND     CLOUDY     2  -2  83 CALM      30.27F
GOSHEN         PTCLDY     8   3  80 CALM      30.27S
MONTICELLO*    PTCLDY    19   7  61 W3        30.28F
LOGANSPORT*    CLOUDY    18   7  62 SW3       30.29S
ROCHESTER*     CLOUDY    14   5  67 CALM      30.28S
WARSAW*        CLEAR     10   7  85 CALM      30.27S
ANGOLA*        MOCLDY    14   3  62 CALM      30.24R
FORT WAYNE     PTCLDY    15   8  73 W6        30.28S WCI   6
HUNTINGTON*    CLOUDY    13   6  73 CALM      30.28S
PERU/GRISSOM   CLOUDY    15  10  78 S6        30.26F WCI   6
MARION*        CLOUDY    13   5  68 CALM      30.28F

$$
INZ028>050-120400-
CENTRAL INDIANA

CITY           SKY/WX    TMP DP  RH WIND       PRES   REMARKS
LAFAYETTE      PTCLDY    20  10  65 CALM      30.30F
KOKOMO*        PTCLDY    16   7  67 SW3       30.28S
MUNCIE*        PTCLDY    18   8  65 S3        30.28S
INDIANAPOLIS   MOCLDY    21  10  62 CALM      30.27F

$$
MIZ043>046-050>051-056>058-064>065-071>073-077>080-120400-
SOUTHWEST LOWER MICHIGAN

CITY           SKY/WX    TMP DP  RH WIND       PRES   REMARKS
BATTLE CREEK   CLEAR     13   6  74 SW7       30.23F WCI   3
BENTON HARBOR  CLOUDY    10   2  69 S7        30.27S WCI  -1
COLDWATER*     CLEAR     12   6  76 SW3       30.24S
HILLSDALE*     CLEAR     15   5  63 W7        30.21S WCI   5
HOLLAND        MOCLDY    11   5  77 CALM      30.24F
GRAND RAPIDS   PTCLDY    16   8  71 SW5       30.23S WCI   9
KALAMAZOO      PTCLDY    14   6  70 SW3       30.25S
STURGIS*       CLEAR     10   5  79 CALM      30.24S
THREE RIVERS*  FAIR      14   8  75 SW3       30.26S

$$
OHZ001>008-015>018-024>025-120400-
NORTHWEST OHIO

CITY           SKY/WX    TMP DP  RH WIND       PRES   REMARKS
DEFIANCE       PTCLDY    18  11  74 SW3       30.27F
FINDLAY        CLOUDY    18  10  71 SW5       30.25F WCI  11
TOLEDO EXPRESS MOCLDY    12   4  70 SW3       30.26S
TOLEDO METCALF PTCLDY    14   5  67 SW6       30.27F WCI   5
LIMA           CLOUDY    17   8  67 SW8       30.26S WCI   7

$$
AND FOR LAKE MICHIGAN COASTAL AND OPEN LAKE BUOY OBSERVATIONS

STATION/POSITION TEMP    WIND        PRES    VSBY  WAVE
                 AIR SEA DIR/SP/G                  HT/PER
                 (F)     (DEG/KT/KT) (MB)    (MI)  (FT/S)
CALUMET HARBOR    20                   N/A
MICHIGAN CITY     16     140/  6/  7   N/A
BURNS HARBOR      18     180/  8/ 10 1025.7F
SAINT JOSEPH      15     120/  4/  7 1025.4S

$$
&&



USA.gov is the U.S. government's official web portal to all federal, state and local government web resources and services.